Location: Newark
(45.5000°N, 11.4167°E)
Time: 12:05:27
(UTC+00:00)

A-11 Canister half - Pass Details

Date: 22 August 2019
Orbit: 1513 x 1686 km, 47.2° (Epoch: 19 September)

Event Time Altitude Azimuth Distance (km) Brightness Sun altitude
Rises 00:39:40 0° 293° (WNW) 4,844 11.6 -29.6°
Reaches altitude 10° 00:43:14 10° 283° (WNW) 3,879 11.0 -29.4°
Enters shadow 00:46:43 21° 267° (W) 3,110 10.3 -29.1°
Maximum altitude 00:51:24 30° 227° (SW) 2,658 - -28.8°
Drops below altitude 10° 00:59:42 10° 172° (S) 3,938 - -28.1°
Sets 01:03:23 0° 162° (SSE) 4,927 - -27.8°
